<<    Mai 2013    >>
Datum    Temp.       Tempmin      Tempmax    Taup.       Taup.min      Taup.max    Feuchte    Feuchtemin    Feuchtemax    Druck    Druckmin    Druckmax    Regen    Wind    Benmax  
  01.05.2013  10,0    9,9    23:59    11,4    00:00  1,7    0,6    00:04    1,8    01:54  56,6    48    00:00    57    01:54  1024,0    1023    01:13    1024    00:00  0,0  0,0  5,0  
  02.05.2013  9,9    9,9    00:00    9,9    00:00  1,7    1,7    00:00    1,7    00:00  57,0    57    00:00    57    00:00  1024,0    1024    00:00    1024    00:00  0,0  0,0  0,0  
  03.05.2013  9,9    9,9    00:00    9,9    00:00  1,7    1,7    00:00    1,7    00:00  57,0    57    00:00    57    00:00  1024,0    1024    00:00    1024    00:00  0,0  0,0  0,0  
  04.05.2013  9,9    9,9    00:00    9,9    00:00  1,7    1,7    00:00    1,7    00:00  57,0    57    00:00    57    00:00  1024,0    1024    00:00    1024    00:00  0,0  0,0  0,0  
  05.05.2013  9,9    9,9    00:00    9,9    00:00  1,7    1,7    00:00    1,7    00:00  57,0    57    00:00    57    00:00  1024,0    1024    00:00    1024    00:00  0,0  0,0  0,0  
  06.05.2013  9,9    9,9    00:00    9,9    00:00  1,7    1,7    00:00    1,7    00:00  57,0    57    00:00    57    00:00  1024,0    1024    00:00    1024    00:00  0,0  0,0  0,0  
  07.05.2013  9,9    9,9    00:00    9,9    00:00  1,7    1,7    00:00    1,7    00:00  57,0    57    00:00    57    00:00  1024,0    1024    00:00    1024    00:00  0,0  0,0  0,0  
  08.05.2013  9,9    9,9    00:00    9,9    00:00  1,7    1,7    00:00    1,7    00:00  57,0    57    00:00    57    00:00  1024,0    1024    00:00    1024    00:00  0,0  0,0  0,0  
  09.05.2013  9,9    9,9    00:00    9,9    00:00  1,7    1,7    00:00    1,7    00:00  57,0    57    00:00    57    00:00  1024,0    1024    00:00    1024    00:00  0,0  0,0  0,0  
  10.05.2013  9,9    9,9    00:00    9,9    00:00  1,7    1,7    00:00    1,7    00:00  57,0    57    00:00    57    00:00  1024,0    1024    00:00    1024    00:00  0,0  0,0  0,0  
  11.05.2013  9,9    9,9    00:00    9,9    00:00  1,7    1,7    00:00    1,7    00:00  57,0    57    00:00    57    00:00  1024,0    1024    00:00    1024    00:00  0,0  0,0  0,0  
  12.05.2013  9,9    9,9    00:00    9,9    00:00  1,7    1,7    00:00    1,7    00:00  57,0    57    00:00    57    00:00  1024,0    1024    00:00    1024    00:00  0,0  0,0  0,0  
  13.05.2013  9,9    9,9    00:00    9,9    00:00  1,7    1,7    00:00    1,7    00:00  57,0    57    00:00    57    00:00  1024,0    1024    00:00    1024    00:00  0,0  0,0  0,0  
  14.05.2013  9,9    9,9    00:00    9,9    00:00  1,7    1,7    00:00    1,7    00:00  57,0    57    00:00    57    00:00  1024,0    1024    00:00    1024    00:00  0,0  0,0  0,0  
  15.05.2013  9,9    9,9    00:00    9,9    00:00  1,7    1,7    00:00    1,7    00:00  57,0    57    00:00    57    00:00  1024,0    1024    00:00    1024    00:00  0,0  0,0  0,0  
  16.05.2013  9,9    9,9    00:00    9,9    00:00  1,7    1,7    00:00    1,7    00:00  57,0    57    00:00    57    00:00  1024,0    1024    00:00    1024    00:00  0,0  0,0  0,0  
  17.05.2013  9,9    9,9    00:00    9,9    00:00  1,7    1,7    00:00    1,7    00:00  57,0    57    00:00    57    00:00  1024,0    1024    00:00    1024    00:00  0,0  0,0  0,0  
  18.05.2013  9,9    9,9    00:00    9,9    00:00  1,7    1,7    00:00    1,7    00:00  57,0    57    00:00    57    00:00  1024,0    1024    00:00    1024    00:00  0,0  0,0  0,0  
  19.05.2013  9,9    9,9    00:00    9,9    00:00  1,7    1,7    00:00    1,7    00:00  57,0    57    00:00    57    00:00  1024,0    1024    00:00    1024    00:00  0,0  0,0  0,0  
  20.05.2013  9,9    9,9    00:00    9,9    00:00  1,7    1,7    00:00    1,7    00:00  57,0    57    00:00    57    00:00  1024,0    1024    00:00    1024    00:00  0,0  0,0  0,0  
  21.05.2013  9,9    9,9    00:00    9,9    00:00  1,7    1,7    00:00    1,7    00:00  57,0    57    00:00    57    00:00  1024,0    1024    00:00    1024    00:00  0,0  0,0  0,0  
  22.05.2013  9,9    9,9    00:00    9,9    00:00  1,7    1,7    00:00    1,7    00:00  57,0    57    00:00    57    00:00  1024,0    1024    00:00    1024    00:00  0,0  0,0  0,0  
  23.05.2013  9,9    9,9    00:00    9,9    00:00  1,7    1,7    00:00    1,7    00:00  57,0    57    00:00    57    00:00  1024,0    1024    00:00    1024    00:00  0,0  0,0  0,0  
  24.05.2013  9,9    9,9    00:00    9,9    00:00  1,7    1,7    00:00    1,7    00:00  57,0    57    00:00    57    00:00  1024,0    1024    00:00    1024    00:00  0,0  0,0  0,0  
  25.05.2013  9,9    9,9    00:00    9,9    00:00  1,7    1,7    00:00    1,7    00:00  57,0    57    00:00    57    00:00  1024,0    1024    00:00    1024    00:00  0,0  0,0  0,0  
  26.05.2013  9,9    9,9    00:00    9,9    00:00  1,7    1,7    00:00    1,7    00:00  57,0    57    00:00    57    00:00  1024,0    1024    00:00    1024    00:00  0,0  0,0  0,0  
  27.05.2013  9,9    9,9    00:00    9,9    00:00  1,7    1,7    00:00    1,7    00:00  57,0    57    00:00    57    00:00  1024,0    1024    00:00    1024    00:00  0,0  0,0  0,0  
  28.05.2013  10,1    9,9    00:00    15,6    23:08  2,0    1,7    00:00    10,2    23:44  57,4    57    00:00    73    23:44  1023,2    1000    23:09    1024    00:00  0,0  0,1  7,9  
  29.05.2013  11,1    9,8    23:59    15,1    00:00  9,7    7,9    08:38    10,7    00:26  91,1    72    00:00    98    23:59  1002,4    1000    04:18    1006    23:59  11,4  2,6  23,8  
  30.05.2013  12,7    9,3    04:20    16,9    18:00  7,6    4,4    19:34    9,7    08:17  74,2    46    18:10    98    00:00  1008,3    1005    03:47    1011    16:32  0,0  1,5  10,4  
  31.05.2013  16,3    12,1    04:43    22,5    17:39  10,2    5,9    17:53    13,9    11:51  70,9    35    17:53    98    04:49  1008,8    1007    04:45    1012    22:30  0,0  5,4  26,6  
 
  Gesamt  10,2  9,3            22,5            2,4  0,6            13,9            59,1  35            98            1022,3  1000            1024            11,4  0,3  26,6  
 
  Mittelwert  10,2  9,9            10,9            2,4  2,1            2,9            59,1  56,1            61,5            1022,3  1021,3            1022,6            0,4  0,3  2,4  
  Minimum  9,9  9,3            9,9            1,7  0,6            1,7            56,6  35,0            57,0            1002,4  1000,0            1006,0            0,0  0,0  0,0  
  Maximum  16,3  12,1            22,5            10,2  7,9            13,9            91,1  72,0            98,0            1024,0  1024,0            1024,0            11,4  5,4  26,6  

  Heie Tage    Tmax >=30C     0  
  Sommertage    Tmax >=25C     0  
  Warme Tage    Tmax >=20C     1  
  Kalte Tage    Tmax  <10C     26  
  Frosttage    Tmin  <0C     0  
  Eistage    Tmax  <0C     0  
  Regentage > 0 mm    1  
  Regentage > 2 mm    1  
  Regentage > 10 mm    1  
  Regentage > 20 mm    0